Location: Pilipovskiye Korichintsy
(49.1833°N, 27.4667°E)
Time: 00:10:22
(UTC+00:00)

Lacrosse 5 - Pass Details

Date: 01 November 2020
Orbit: 714 x 725 km, 57.0° (Epoch: 30 November)

Event Time Altitude Azimuth Distance (km) Brightness Sun altitude
Rises 19:01:55 0° 301° (WNW) 3,121 6.0 -41.0°
Reaches altitude 10° 19:04:32 10° 290° (WNW) 2,198 5.0 -41.3°
Enters shadow 19:05:07 13° 286° (WNW) 2,009 4.7 -41.4°
